MOLNIYA 1-80 1 21118U 91012A 10066.54319369 +.00000991 +00000-0 +10000-3 0 07776 2 21118 061.8823 229.9225 7219843 256.2284 020.6797 02.01001576139621 MOLNIYA 3-40 1 21196U 91022A 10067.31567188 -.00001291 +00000-0 +10000-3 0 01277 2 21196 061.7410 212.2694 7211110 258.6608 019.6342 02.00852733138944 MOLNIYA 1-81 1 21426U 91043A 10067.41921637 +.00000267 +00000-0 +10000-3 0 02485 2 21426 061.9703 202.6519 7172072 268.3304 016.1136 02.00622060137209 MOLNIYA 3-41 1 21706U 91065A 10063.18163094 +.00005878 +15310-6 +53730-3 0 05293 2 21706 062.5899 017.2717 7516240 279.3135 010.5201 02.01730948135267 MOLNIYA 3-42 1 22178U 92067A 10064.29551881 +.00000244 +00000-0 -62030-6 0 07912 2 22178 061.9350 156.3001 7258615 266.3293 016.1372 02.00646124127417 MOLNIYA 1-86 1 22671U 93035A 10067.09032007 -.00001400 +00000-0 +21523-3 0 02471 2 22671 062.1138 101.7336 7400853 272.8669 012.9177 02.03259771123378 MOLNIYA 3-45 1 22729U 93049A 10065.45368081 -.00001105 00000-0 00000+0 0 9777 2 22729 062.0662 244.4505 7290895 255.7172 020.1776 02.00263418121518 MOLNIYA 1-87 1 22949U 93079A 10065.76350986 -.00001497 00000-0 -15511-2 0 4599 2 22949 063.6778 022.3993 7330317 248.9549 023.4633 02.00851774118799 MOLNIYA 1-88 1 23420U 94081A 10067.45165944 +.00000838 +00000-0 -54827-4 0 00659 2 23420 061.9393 194.4506 7307816 265.5490 015.9823 02.02255796111746 MOLNIYA 3-47 1 23642U 95042A 10066.86279859 +.00000338 +00000-0 +39063-3 0 05178 2 23642 063.2346 359.9768 7418661 254.0336 019.7732 02.00629403106839 MOLNIYA 1-89 1 24273U 96045A 10066.65380857 +.00003974 +00000-0 +32938-3 0 04443 2 24273 062.6601 261.2818 6978701 258.4734 022.0380 02.69583771101320 MOLNIYA 1-90 1 24960U 97054A 10067.48736118 +.00000088 +00000-0 +46725-3 0 07360 2 24960 063.6666 048.6463 7402377 253.3328 020.2987 02.00662063091286 MOLNIYA 3-49 1 25379U 98040A 10067.69721627 +.00003386 +93712-6 +12349-3 0 00587 2 25379 063.4475 011.7637 7533648 253.8379 018.7810 02.01250636085637 MOLNIYA 1-91 1 25485U 98054A 10067.73090852 +.00000184 +00000-0 +10000-3 0 08691 2 25485 063.8377 151.7592 6875555 258.2303 347.0615 02.00618128083818 MOLNIYA 3-50 1 25847U 99036A 10067.50617797 -.00000119 +00000-0 +10000-3 0 08051 2 25847 063.6160 239.6577 6915391 265.1446 019.5398 02.00611362078158 MOLNIYA 3-51 1 26867U 01030A 10067.79502038 +.00000286 +00000-0 +00000-0 0 00910 2 26867 064.1134 172.8581 6977395 263.7108 346.7497 02.00694612063262 MOLNIYA 1-92 1 27707U 03011A 10065.87776240 .00000200 00000-0 10000-3 0 5139 2 27707 064.7683 177.8425 6973780 259.6364 040.6329 02.00541022 50766 MOLNIYA 3-53 1 27834U 03029A 10065.53907193 .00000213 00000-0 00000+0 0 3345 2 27834 064.8048 177.7681 6968514 260.1735 154.7637 02.00602769 49183 MOLNIYA 1-93 1 28163U 04005A 10067.56661659 +.00000154 +00000-0 +10000-3 0 01588 2 28163 064.8796 255.5321 7069302 272.2215 015.9964 02.00564873044347